Time,TemperatureF,DewpointF,PressureIn,WindDirection,WindDirectionDegrees,WindSpeedMPH,WindSpeedGustMPH,Humidity,HourlyPrecipIn,Conditions,Clouds,dailyrainin,SoftwareType,DateUTC
2013-06-23 00:06:00,62.3,49.0,29.75,NW,313,0.0,-999.0,62,-99.99,,,0.00,weatherlink.com 1.10,2013-06-23 07:06:00,
2013-06-23 00:21:00,61.8,49.0,29.75,NW,313,0.0,-999.0,64,-99.99,,,0.00,weatherlink.com 1.10,2013-06-23 07:21:00,
2013-06-23 00:36:00,61.6,50.0,29.74,NW,313,0.0,-999.0,65,-99.99,,,0.00,weatherlink.com 1.10,2013-06-23 07:36:00,
2013-06-23 00:51:00,61.5,52.0,29.74,NW,313,0.0,-999.0,70,-99.99,,,0.00,weatherlink.com 1.10,2013-06-23 07:51:00,
2013-06-23 01:06:00,61.0,52.0,29.74,NW,313,0.0,-999.0,71,-99.99,,,0.00,weatherlink.com 1.10,2013-06-23 08:06:00,
2013-06-23 01:21:00,60.4,51.0,29.74,NW,313,0.0,-999.0,72,-99.99,,,0.00,weatherlink.com 1.10,2013-06-23 08:21:00,
2013-06-23 01:36:00,60.1,51.0,29.73,NW,313,0.0,-999.0,72,-99.99,,,0.00,weatherlink.com 1.10,2013-06-23 08:36:00,
2013-06-23 01:51:00,59.9,52.0,29.73,NW,313,0.0,-999.0,74,-99.99,,,0.00,weatherlink.com 1.10,2013-06-23 08:51:00,
2013-06-23 02:06:00,59.9,53.0,29.73,NW,313,0.0,-999.0,78,-99.99,,,0.00,weatherlink.com 1.10,2013-06-23 09:06:00,
2013-06-23 02:21:00,59.6,56.0,29.73,NW,313,0.0,-999.0,86,-99.99,,,0.01,weatherlink.com 1.10,2013-06-23 09:21:00,
2013-06-23 02:36:00,59.0,56.0,29.72,NW,313,0.0,-999.0,90,-99.99,,,0.01,weatherlink.com 1.10,2013-06-23 09:36:00,
2013-06-23 02:51:00,58.6,56.0,29.72,NW,313,0.0,-999.0,91,-99.99,,,0.01,weatherlink.com 1.10,2013-06-23 09:51:00,
2013-06-23 03:06:00,58.3,56.0,29.71,NW,313,0.0,-999.0,91,-99.99,,,0.01,weatherlink.com 1.10,2013-06-23 10:06:00,
2013-06-23 03:21:00,58.1,55.0,29.71,NW,313,0.0,-999.0,90,-99.99,,,0.01,weatherlink.com 1.10,2013-06-23 10:21:00,
2013-06-23 03:36:00,58.3,56.0,29.70,NW,313,0.0,-999.0,91,-99.99,,,0.01,weatherlink.com 1.10,2013-06-23 10:36:00,
2013-06-23 03:51:00,58.4,56.0,29.70,NW,313,0.0,-999.0,92,-99.99,,,0.01,weatherlink.com 1.10,2013-06-23 10:51:00,
2013-06-23 04:06:00,58.6,57.0,29.70,NW,313,0.0,-999.0,93,-99.99,,,0.01,weatherlink.com 1.10,2013-06-23 11:06:00,
2013-06-23 04:21:00,58.3,56.0,29.70,NW,313,0.0,-999.0,93,-99.99,,,0.01,weatherlink.com 1.10,2013-06-23 11:21:00,
2013-06-23 04:36:00,58.3,57.0,29.70,NW,313,0.0,-999.0,94,-99.99,,,0.01,weatherlink.com 1.10,2013-06-23 11:36:00,
2013-06-23 04:51:00,58.3,56.0,29.69,NW,313,0.0,-999.0,93,-99.99,,,0.01,weatherlink.com 1.10,2013-06-23 11:51:00,
2013-06-23 05:06:00,58.1,56.0,29.68,NW,313,0.0,-999.0,94,-99.99,,,0.01,weatherlink.com 1.10,2013-06-23 12:06:00,
2013-06-23 05:21:00,57.8,56.0,29.68,NW,313,0.0,-999.0,94,-99.99,,,0.01,weatherlink.com 1.10,2013-06-23 12:21:00,
2013-06-23 05:36:00,57.8,56.0,29.68,NW,313,0.0,-999.0,95,-99.99,,,0.01,weatherlink.com 1.10,2013-06-23 12:36:00,
2013-06-23 05:52:00,57.6,56.0,29.67,NW,313,0.0,-999.0,95,-99.99,,,0.02,weatherlink.com 1.10,2013-06-23 12:52:00,
2013-06-23 06:07:00,57.6,56.0,29.67,NW,313,0.0,-999.0,95,-99.99,,,0.02,weatherlink.com 1.10,2013-06-23 13:07:00,
2013-06-23 06:22:00,57.6,56.0,29.67,NW,313,0.0,-999.0,95,-99.99,,,0.02,weatherlink.com 1.10,2013-06-23 13:22:00,
2013-06-23 06:37:00,58.0,57.0,29.67,NW,313,0.0,-999.0,96,-99.99,,,0.02,weatherlink.com 1.10,2013-06-23 13:37:00,
2013-06-23 06:52:00,58.3,57.0,29.66,NW,313,0.0,-999.0,96,-99.99,,,0.02,weatherlink.com 1.10,2013-06-23 13:52:00,
2013-06-23 07:07:00,58.6,58.0,29.65,NW,313,0.0,-999.0,96,-99.99,,,0.02,weatherlink.com 1.10,2013-06-23 14:07:00,
2013-06-23 07:22:00,59.0,58.0,29.66,NW,313,0.0,-999.0,96,-99.99,,,0.02,weatherlink.com 1.10,2013-06-23 14:22:00,
2013-06-23 07:37:00,59.2,58.0,29.66,NW,313,0.0,-999.0,96,-99.99,,,0.02,weatherlink.com 1.10,2013-06-23 14:37:00,
2013-06-23 07:52:00,59.2,58.0,29.65,NW,315,0.0,-999.0,95,-99.99,,,0.02,weatherlink.com 1.10,2013-06-23 14:52:00,
2013-06-23 08:07:00,59.3,58.0,29.65,NW,315,0.0,-999.0,95,-99.99,,,0.02,weatherlink.com 1.10,2013-06-23 15:07:00,
2013-06-23 08:22:00,59.6,58.0,29.65,NW,315,0.0,-999.0,95,-99.99,,,0.02,weatherlink.com 1.10,2013-06-23 15:22:00,
2013-06-23 08:37:00,59.6,58.0,29.65,NW,315,0.0,-999.0,95,-99.99,,,0.02,weatherlink.com 1.10,2013-06-23 15:37:00,
2013-06-23 08:52:00,60.1,58.0,29.66,NNW,331,0.0,-999.0,94,-99.99,,,0.02,weatherlink.com 1.10,2013-06-23 15:52:00,
2013-06-23 09:08:00,60.4,58.0,29.65,NNW,336,1.0,-999.0,93,-99.99,,,0.02,weatherlink.com 1.10,2013-06-23 16:08:00,
2013-06-23 09:22:00,61.3,59.0,29.65,NNW,336,0.0,-999.0,92,-99.99,,,0.02,weatherlink.com 1.10,2013-06-23 16:22:00,
2013-06-23 09:37:00,61.6,59.0,29.65,North,351,3.0,-999.0,90,-99.99,,,0.02,weatherlink.com 1.10,2013-06-23 16:37:00,
2013-06-23 09:52:00,61.6,59.0,29.65,NNE,12,1.0,-999.0,90,-99.99,,,0.02,weatherlink.com 1.10,2013-06-23 16:52:00,
2013-06-23 10:06:00,62.1,59.0,29.64,NNE,13,0.0,-999.0,89,-99.99,,,0.02,weatherlink.com 1.10,2013-06-23 17:06:00,
2013-06-23 10:22:00,62.0,59.0,29.64,NNE,13,0.0,-999.0,88,-99.99,,,0.02,weatherlink.com 1.10,2013-06-23 17:22:00,
2013-06-23 10:37:00,62.7,59.0,29.63,NNE,13,0.0,-999.0,86,-99.99,,,0.02,weatherlink.com 1.10,2013-06-23 17:37:00,
2013-06-23 10:52:00,63.4,60.0,29.63,North,11,0.0,-999.0,87,-99.99,,,0.02,weatherlink.com 1.10,2013-06-23 17:52:00,
2013-06-23 11:07:00,63.5,59.0,29.63,ENE,72,0.0,-999.0,84,-99.99,,,0.02,weatherlink.com 1.10,2013-06-23 18:07:00,
2013-06-23 11:21:00,63.9,59.0,29.62,ENE,72,0.0,-999.0,85,-99.99,,,0.02,weatherlink.com 1.10,2013-06-23 18:21:00,
2013-06-23 11:37:00,64.3,59.0,29.62,NNE,13,0.0,-999.0,84,-99.99,,,0.02,weatherlink.com 1.10,2013-06-23 18:37:00,
2013-06-23 11:51:00,65.3,60.0,29.62,WSW,254,0.0,-999.0,82,-99.99,,,0.02,weatherlink.com 1.10,2013-06-23 18:51:00,
2013-06-23 12:08:00,66.3,61.0,29.61,WSW,248,0.0,-999.0,82,-99.99,,,0.02,weatherlink.com 1.10,2013-06-23 19:08:00,
2013-06-23 12:21:00,66.1,60.0,29.61,WSW,248,0.0,-999.0,81,-99.99,,,0.02,weatherlink.com 1.10,2013-06-23 19:21:00,
2013-06-23 12:38:00,65.3,60.0,29.61,WSW,248,0.0,-999.0,83,-99.99,,,0.02,weatherlink.com 1.10,2013-06-23 19:38:00,
2013-06-23 12:53:00,65.8,61.0,29.60,WSW,248,0.0,-999.0,83,-99.99,,,0.02,weatherlink.com 1.10,2013-06-23 19:53:00,
2013-06-23 13:07:00,66.6,60.0,29.59,SW,233,0.0,-999.0,80,-99.99,,,0.02,weatherlink.com 1.10,2013-06-23 20:07:00,
2013-06-23 13:23:00,67.8,61.0,29.59,ENE,67,0.0,-999.0,79,-99.99,,,0.02,weatherlink.com 1.10,2013-06-23 20:23:00,
2013-06-23 13:37:00,68.3,62.0,29.59,NNW,329,0.0,-999.0,79,-99.99,,,0.02,weatherlink.com 1.10,2013-06-23 20:37:00,
2013-06-23 13:51:00,68.8,61.0,29.58,NNW,329,0.0,-999.0,76,-99.99,,,0.02,weatherlink.com 1.10,2013-06-23 20:51:00,
2013-06-23 14:06:00,68.3,60.0,29.57,NW,321,0.0,-999.0,74,-99.99,,,0.02,weatherlink.com 1.10,2013-06-23 21:06:00,
2013-06-23 14:23:00,69.6,59.0,29.57,NNW,328,0.0,-999.0,69,-99.99,,,0.02,weatherlink.com 1.10,2013-06-23 21:23:00,
2013-06-23 14:37:00,70.4,60.0,29.57,NW,315,0.0,-999.0,70,-99.99,,,0.02,weatherlink.com 1.10,2013-06-23 21:37:00,
2013-06-23 14:52:00,70.1,60.0,29.57,NNW,331,0.0,-999.0,70,-99.99,,,0.02,weatherlink.com 1.10,2013-06-23 21:52:00,
2013-06-23 15:08:00,70.6,60.0,29.56,South,186,0.0,-999.0,68,-99.99,,,0.02,weatherlink.com 1.10,2013-06-23 22:08:00,
2013-06-23 15:23:00,70.8,60.0,29.56,SSE,167,0.0,-999.0,69,-99.99,,,0.02,weatherlink.com 1.10,2013-06-23 22:23:00,
2013-06-23 15:38:00,71.1,58.0,29.55,East,92,0.0,-999.0,63,-99.99,,,0.02,weatherlink.com 1.10,2013-06-23 22:38:00,
2013-06-23 15:52:00,70.6,60.0,29.55,East,89,2.0,-999.0,69,-99.99,,,0.02,weatherlink.com 1.10,2013-06-23 22:52:00,
2013-06-23 16:08:00,67.6,62.0,29.55,NW,309,0.0,-999.0,81,-99.99,,,0.03,weatherlink.com 1.10,2013-06-23 23:08:00,
2013-06-23 16:22:00,65.5,61.0,29.55,NW,309,0.0,-999.0,84,-99.99,,,0.06,weatherlink.com 1.10,2013-06-23 23:22:00,
2013-06-23 16:37:00,63.7,61.0,29.56,NW,309,0.0,-999.0,92,-99.99,,,0.11,weatherlink.com 1.10,2013-06-23 23:37:00,
2013-06-23 16:52:00,62.7,61.0,29.56,NW,310,0.0,-999.0,95,-99.99,,,0.24,weatherlink.com 1.10,2013-06-23 23:52:00,
2013-06-23 17:07:00,62.4,61.0,29.56,NW,310,0.0,-999.0,96,-99.99,,,0.27,weatherlink.com 1.10,2013-06-24 00:07:00,
2013-06-23 17:22:00,63.1,62.0,29.55,NW,310,0.0,-999.0,97,-99.99,,,0.28,weatherlink.com 1.10,2013-06-24 00:22:00,
2013-06-23 17:38:00,63.2,62.0,29.55,NW,310,0.0,-999.0,97,-99.99,,,0.28,weatherlink.com 1.10,2013-06-24 00:38:00,
2013-06-23 17:51:00,63.7,63.0,29.55,NW,310,0.0,-999.0,96,-99.99,,,0.28,weatherlink.com 1.10,2013-06-24 00:51:00,
2013-06-23 18:07:00,63.5,62.0,29.55,WSW,243,0.0,-999.0,95,-99.99,,,0.28,weatherlink.com 1.10,2013-06-24 01:07:00,
2013-06-23 18:22:00,63.2,62.0,29.55,WSW,243,0.0,-999.0,95,-99.99,,,0.29,weatherlink.com 1.10,2013-06-24 01:22:00,
2013-06-23 18:37:00,62.9,62.0,29.55,WSW,243,0.0,-999.0,96,-99.99,,,0.29,weatherlink.com 1.10,2013-06-24 01:37:00,
2013-06-23 18:52:00,62.6,62.0,29.54,WSW,243,0.0,-999.0,96,-99.99,,,0.29,weatherlink.com 1.10,2013-06-24 01:52:00,
2013-06-23 19:07:00,62.7,62.0,29.54,WSW,243,0.0,-999.0,96,-99.99,,,0.29,weatherlink.com 1.10,2013-06-24 02:07:00,
2013-06-23 19:22:00,62.6,62.0,29.54,WSW,243,0.0,-999.0,97,-99.99,,,0.29,weatherlink.com 1.10,2013-06-24 02:22:00,
2013-06-23 19:37:00,62.3,61.0,29.54,WSW,243,0.0,-999.0,96,-99.99,,,0.29,weatherlink.com 1.10,2013-06-24 02:37:00,
2013-06-23 19:52:00,62.3,62.0,29.54,WSW,243,0.0,-999.0,97,-99.99,,,0.29,weatherlink.com 1.10,2013-06-24 02:52:00,
2013-06-23 20:07:00,62.0,61.0,29.54,WSW,243,0.0,-999.0,96,-99.99,,,0.29,weatherlink.com 1.10,2013-06-24 03:07:00,
2013-06-23 20:23:00,61.3,60.0,29.54,WSW,243,0.0,-999.0,96,-99.99,,,0.29,weatherlink.com 1.10,2013-06-24 03:23:00,
2013-06-23 20:37:00,60.7,60.0,29.54,WSW,243,0.0,-999.0,96,-99.99,,,0.29,weatherlink.com 1.10,2013-06-24 03:37:00,
2013-06-23 20:52:00,60.2,59.0,29.54,WSW,243,0.0,-999.0,96,-99.99,,,0.29,weatherlink.com 1.10,2013-06-24 03:52:00,
2013-06-23 21:07:00,59.8,59.0,29.54,WSW,243,0.0,-999.0,96,-99.99,,,0.29,weatherlink.com 1.10,2013-06-24 04:07:00,
2013-06-23 21:23:00,59.3,58.0,29.54,WSW,243,0.0,-999.0,96,-99.99,,,0.29,weatherlink.com 1.10,2013-06-24 04:23:00,
2013-06-23 21:37:00,59.2,58.0,29.54,WSW,243,0.0,-999.0,97,-99.99,,,0.29,weatherlink.com 1.10,2013-06-24 04:37:00,
2013-06-23 21:52:00,59.2,58.0,29.54,WSW,243,0.0,-999.0,97,-99.99,,,0.29,weatherlink.com 1.10,2013-06-24 04:52:00,
2013-06-23 22:06:00,59.2,59.0,29.54,WSW,243,0.0,-999.0,98,-99.99,,,0.29,weatherlink.com 1.10,2013-06-24 05:06:00,
2013-06-23 22:22:00,59.3,59.0,29.55,WSW,243,0.0,-999.0,98,-99.99,,,0.29,weatherlink.com 1.10,2013-06-24 05:22:00,
2013-06-23 22:37:00,59.3,59.0,29.56,WSW,243,0.0,-999.0,98,-99.99,,,0.29,weatherlink.com 1.10,2013-06-24 05:37:00,
2013-06-23 22:52:00,59.2,59.0,29.56,WSW,243,0.0,-999.0,98,-99.99,,,0.29,weatherlink.com 1.10,2013-06-24 05:52:00,
2013-06-23 23:07:00,59.0,59.0,29.56,WSW,243,0.0,-999.0,98,-99.99,,,0.29,weatherlink.com 1.10,2013-06-24 06:07:00,
2013-06-23 23:22:00,58.6,58.0,29.55,SSW,205,0.0,-999.0,97,-99.99,,,0.29,weatherlink.com 1.10,2013-06-24 06:22:00,
2013-06-23 23:37:00,58.1,57.0,29.56,North,10,0.0,-999.0,97,-99.99,,,0.29,weatherlink.com 1.10,2013-06-24 06:37:00,
2013-06-23 23:52:00,58.0,57.0,29.57,SE,140,2.0,-999.0,97,-99.99,,,0.29,weatherlink.com 1.10,2013-06-24 06:52:00,